Time,TemperatureF,DewpointF,PressureIn,WindDirection,WindDirectionDegrees,WindSpeedMPH,WindSpeedGustMPH,Humidity,HourlyPrecipIn,Conditions,Clouds,dailyrainin,SoftwareType,DateUTC
2013-05-26 00:02:00,41.0,31.0,-100.00,NNW,330,1.0,3.0,69,0.00,,,-99.99,,2013-05-26 05:02:00,
2013-05-26 00:12:00,41.0,31.0,-100.00,NNW,330,1.0,3.0,69,0.00,,,-99.99,,2013-05-26 05:12:00,
2013-05-26 00:22:00,41.0,31.0,-100.00,NNW,330,1.0,3.0,69,0.00,,,-99.99,,2013-05-26 05:22:00,
2013-05-26 00:32:00,41.0,31.0,-100.00,NNW,330,1.0,3.0,69,0.00,,,-99.99,,2013-05-26 05:32:00,
2013-05-26 00:42:00,41.0,31.0,-100.00,NNW,330,1.0,3.0,69,0.00,,,-99.99,,2013-05-26 05:42:00,
2013-05-26 01:01:00,38.0,31.0,-100.00,West,280,1.0,1.0,75,0.00,,,-99.99,,2013-05-26 06:01:00,
2013-05-26 01:12:00,38.0,31.0,-100.00,West,280,1.0,1.0,75,0.00,,,-99.99,,2013-05-26 06:12:00,
2013-05-26 01:22:00,38.0,31.0,-100.00,West,280,1.0,1.0,75,0.00,,,-99.99,,2013-05-26 06:22:00,
2013-05-26 01:32:00,38.0,31.0,-100.00,West,280,1.0,1.0,75,0.00,,,-99.99,,2013-05-26 06:32:00,
2013-05-26 01:42:00,38.0,31.0,-100.00,West,280,1.0,1.0,75,0.00,,,-99.99,,2013-05-26 06:42:00,
2013-05-26 02:01:00,36.0,31.0,-100.00,West,275,1.0,2.0,80,0.00,,,-99.99,,2013-05-26 07:01:00,
2013-05-26 02:11:00,36.0,31.0,-100.00,West,275,1.0,2.0,80,0.00,,,-99.99,,2013-05-26 07:11:00,
2013-05-26 02:21:00,36.0,31.0,-100.00,West,275,1.0,2.0,80,0.00,,,-99.99,,2013-05-26 07:21:00,
2013-05-26 02:31:00,36.0,31.0,-100.00,West,275,1.0,2.0,80,0.00,,,-99.99,,2013-05-26 07:31:00,
2013-05-26 02:42:00,36.0,31.0,-100.00,West,275,1.0,2.0,80,0.00,,,-99.99,,2013-05-26 07:42:00,
2013-05-26 03:01:00,35.0,31.0,-100.00,West,275,0.0,2.0,84,0.00,,,-99.99,,2013-05-26 08:01:00,
2013-05-26 03:12:00,35.0,31.0,-100.00,West,275,0.0,2.0,84,0.00,,,-99.99,,2013-05-26 08:12:00,
2013-05-26 03:21:00,35.0,31.0,-100.00,West,275,0.0,2.0,84,0.00,,,-99.99,,2013-05-26 08:21:00,
2013-05-26 03:32:00,35.0,31.0,-100.00,West,275,0.0,2.0,84,0.00,,,-99.99,,2013-05-26 08:32:00,
2013-05-26 03:42:00,35.0,31.0,-100.00,West,275,0.0,2.0,84,0.00,,,-99.99,,2013-05-26 08:42:00,
2013-05-26 04:01:00,34.0,31.0,-100.00,WNW,285,1.0,2.0,86,0.00,,,-99.99,,2013-05-26 09:01:00,
2013-05-26 04:11:00,34.0,31.0,-100.00,WNW,285,1.0,2.0,86,0.00,,,-99.99,,2013-05-26 09:11:00,
2013-05-26 04:21:00,34.0,31.0,-100.00,WNW,285,1.0,2.0,86,0.00,,,-99.99,,2013-05-26 09:21:00,
2013-05-26 04:33:00,34.0,31.0,-100.00,WNW,285,1.0,2.0,86,0.00,,,-99.99,,2013-05-26 09:33:00,
2013-05-26 04:42:00,34.0,31.0,-100.00,WNW,285,1.0,2.0,86,0.00,,,-99.99,,2013-05-26 09:42:00,
2013-05-26 05:02:00,33.0,29.0,-100.00,WNW,285,2.0,2.0,87,0.00,,,-99.99,,2013-05-26 10:02:00,
2013-05-26 05:12:00,33.0,29.0,-100.00,WNW,285,2.0,2.0,87,0.00,,,-99.99,,2013-05-26 10:12:00,
2013-05-26 05:23:00,33.0,29.0,-100.00,WNW,285,2.0,2.0,87,0.00,,,-99.99,,2013-05-26 10:23:00,
2013-05-26 05:32:00,33.0,29.0,-100.00,WNW,285,2.0,2.0,87,0.00,,,-99.99,,2013-05-26 10:32:00,
2013-05-26 05:42:00,33.0,29.0,-100.00,WNW,285,2.0,2.0,87,0.00,,,-99.99,,2013-05-26 10:42:00,
2013-05-26 06:03:00,32.0,29.0,-100.00,WNW,285,2.0,3.0,87,0.00,,,-99.99,,2013-05-26 11:03:00,
2013-05-26 06:11:00,32.0,29.0,-100.00,WNW,285,2.0,3.0,87,0.00,,,-99.99,,2013-05-26 11:11:00,
2013-05-26 06:22:00,32.0,29.0,-100.00,WNW,285,2.0,3.0,87,0.00,,,-99.99,,2013-05-26 11:22:00,
2013-05-26 06:32:00,32.0,29.0,-100.00,WNW,285,2.0,3.0,87,0.00,,,-99.99,,2013-05-26 11:32:00,
2013-05-26 06:42:00,32.0,29.0,-100.00,WNW,285,2.0,3.0,87,0.00,,,-99.99,,2013-05-26 11:42:00,
2013-05-26 07:02:00,40.0,35.0,-100.00,NNW,335,0.0,0.0,84,0.00,,,-99.99,,2013-05-26 12:02:00,
2013-05-26 07:12:00,40.0,35.0,-100.00,NNW,335,0.0,0.0,84,0.00,,,-99.99,,2013-05-26 12:12:00,
2013-05-26 07:21:00,40.0,35.0,-100.00,NNW,335,0.0,0.0,84,0.00,,,-99.99,,2013-05-26 12:21:00,
2013-05-26 07:32:00,40.0,35.0,-100.00,NNW,335,0.0,0.0,84,0.00,,,-99.99,,2013-05-26 12:32:00,
2013-05-26 07:42:00,40.0,35.0,-100.00,NNW,335,0.0,0.0,84,0.00,,,-99.99,,2013-05-26 12:42:00,
2013-05-26 08:02:00,49.0,35.0,-100.00,ESE,115,3.0,4.0,59,0.00,,,-99.99,,2013-05-26 13:02:00,
2013-05-26 08:11:00,49.0,35.0,-100.00,ESE,115,3.0,4.0,59,0.00,,,-99.99,,2013-05-26 13:11:00,
2013-05-26 08:21:00,49.0,35.0,-100.00,ESE,115,3.0,4.0,59,0.00,,,-99.99,,2013-05-26 13:21:00,
2013-05-26 08:32:00,49.0,35.0,-100.00,ESE,115,3.0,4.0,59,0.00,,,-99.99,,2013-05-26 13:32:00,
2013-05-26 08:42:00,49.0,35.0,-100.00,ESE,115,3.0,4.0,59,0.00,,,-99.99,,2013-05-26 13:42:00,
2013-05-26 09:02:00,54.0,31.0,-100.00,ENE,75,2.0,4.0,41,0.00,,,-99.99,,2013-05-26 14:02:00,
2013-05-26 09:11:00,54.0,31.0,-100.00,ENE,75,2.0,4.0,41,0.00,,,-99.99,,2013-05-26 14:11:00,
2013-05-26 09:21:00,54.0,31.0,-100.00,ENE,75,2.0,4.0,41,0.00,,,-99.99,,2013-05-26 14:21:00,
2013-05-26 09:32:00,54.0,31.0,-100.00,ENE,75,2.0,4.0,41,0.00,,,-99.99,,2013-05-26 14:32:00,
2013-05-26 09:41:00,54.0,31.0,-100.00,ENE,75,2.0,4.0,41,0.00,,,-99.99,,2013-05-26 14:41:00,
2013-05-26 09:42:00,59.0,28.0,-100.00,East,85,6.0,9.0,31,0.00,,,-99.99,,2013-05-26 14:42:00,
2013-05-26 10:01:00,59.0,28.0,-100.00,East,85,6.0,9.0,31,0.00,,,-99.99,,2013-05-26 15:01:00,
2013-05-26 10:12:00,59.0,28.0,-100.00,East,85,6.0,9.0,31,0.00,,,-99.99,,2013-05-26 15:12:00,
2013-05-26 10:22:00,59.0,28.0,-100.00,East,85,6.0,9.0,31,0.00,,,-99.99,,2013-05-26 15:22:00,
2013-05-26 10:33:00,59.0,28.0,-100.00,East,85,6.0,9.0,31,0.00,,,-99.99,,2013-05-26 15:33:00,
2013-05-26 10:42:00,63.0,26.0,-100.00,SE,140,6.0,13.0,24,0.00,,,-99.99,,2013-05-26 15:42:00,
2013-05-26 11:03:00,63.0,26.0,-100.00,SE,140,6.0,13.0,24,0.00,,,-99.99,,2013-05-26 16:03:00,
2013-05-26 11:12:00,63.0,26.0,-100.00,SE,140,6.0,13.0,24,0.00,,,-99.99,,2013-05-26 16:12:00,
2013-05-26 11:23:00,63.0,26.0,-100.00,SE,140,6.0,13.0,24,0.00,,,-99.99,,2013-05-26 16:23:00,
2013-05-26 11:33:00,63.0,26.0,-100.00,SE,140,6.0,13.0,24,0.00,,,-99.99,,2013-05-26 16:33:00,
2013-05-26 11:42:00,64.0,22.0,-100.00,East,90,8.0,14.0,20,0.00,,,-99.99,,2013-05-26 16:42:00,
2013-05-26 12:02:00,64.0,22.0,-100.00,East,90,8.0,14.0,20,0.00,,,-99.99,,2013-05-26 17:02:00,
2013-05-26 12:11:00,64.0,22.0,-100.00,East,90,8.0,14.0,20,0.00,,,-99.99,,2013-05-26 17:11:00,
2013-05-26 12:22:00,64.0,22.0,-100.00,East,90,8.0,14.0,20,0.00,,,-99.99,,2013-05-26 17:22:00,
2013-05-26 12:32:00,64.0,22.0,-100.00,East,90,8.0,14.0,20,0.00,,,-99.99,,2013-05-26 17:32:00,
2013-05-26 12:42:00,66.0,25.0,-100.00,ESE,110,12.0,19.0,21,0.00,,,-99.99,,2013-05-26 17:42:00,
2013-05-26 13:01:00,66.0,25.0,-100.00,ESE,110,12.0,19.0,21,0.00,,,-99.99,,2013-05-26 18:01:00,
2013-05-26 13:12:00,66.0,25.0,-100.00,ESE,110,12.0,19.0,21,0.00,,,-99.99,,2013-05-26 18:12:00,
2013-05-26 13:21:00,66.0,25.0,-100.00,ESE,110,12.0,19.0,21,0.00,,,-99.99,,2013-05-26 18:21:00,
2013-05-26 13:32:00,66.0,25.0,-100.00,ESE,110,12.0,19.0,21,0.00,,,-99.99,,2013-05-26 18:32:00,
2013-05-26 14:01:00,65.0,23.0,-100.00,East,85,9.0,16.0,20,0.00,,,-99.99,,2013-05-26 19:01:00,
2013-05-26 14:11:00,65.0,23.0,-100.00,East,85,9.0,16.0,20,0.00,,,-99.99,,2013-05-26 19:11:00,
2013-05-26 14:22:00,65.0,23.0,-100.00,East,85,9.0,16.0,20,0.00,,,-99.99,,2013-05-26 19:22:00,
2013-05-26 14:32:00,65.0,23.0,-100.00,East,85,9.0,16.0,20,0.00,,,-99.99,,2013-05-26 19:32:00,
2013-05-26 14:42:00,65.0,23.0,-100.00,East,85,9.0,16.0,20,0.00,,,-99.99,,2013-05-26 19:42:00,
2013-05-26 15:02:00,64.0,22.0,-100.00,East,90,12.0,22.0,20,0.00,,,-99.99,,2013-05-26 20:02:00,
2013-05-26 15:11:00,64.0,22.0,-100.00,East,90,12.0,22.0,20,0.00,,,-99.99,,2013-05-26 20:11:00,
2013-05-26 15:22:00,64.0,22.0,-100.00,East,90,12.0,22.0,20,0.00,,,-99.99,,2013-05-26 20:22:00,
2013-05-26 15:32:00,64.0,22.0,-100.00,East,90,12.0,22.0,20,0.00,,,-99.99,,2013-05-26 20:32:00,
2013-05-26 15:41:00,64.0,22.0,-100.00,East,90,12.0,22.0,20,0.00,,,-99.99,,2013-05-26 20:41:00,
2013-05-26 15:42:00,63.0,20.0,-100.00,East,85,10.0,21.0,19,0.00,,,-99.99,,2013-05-26 20:42:00,
2013-05-26 16:02:00,63.0,20.0,-100.00,East,85,10.0,21.0,19,0.00,,,-99.99,,2013-05-26 21:02:00,
2013-05-26 16:11:00,63.0,20.0,-100.00,East,85,10.0,21.0,19,0.00,,,-99.99,,2013-05-26 21:11:00,
2013-05-26 16:22:00,63.0,20.0,-100.00,East,85,10.0,21.0,19,0.00,,,-99.99,,2013-05-26 21:22:00,
2013-05-26 16:33:00,63.0,20.0,-100.00,East,85,10.0,21.0,19,0.00,,,-99.99,,2013-05-26 21:33:00,
2013-05-26 16:42:00,61.0,18.0,-100.00,East,85,11.0,24.0,19,0.00,,,-99.99,,2013-05-26 21:42:00,
2013-05-26 17:03:00,61.0,18.0,-100.00,East,85,11.0,24.0,19,0.00,,,-99.99,,2013-05-26 22:03:00,
2013-05-26 17:12:00,61.0,18.0,-100.00,East,85,11.0,24.0,19,0.00,,,-99.99,,2013-05-26 22:12:00,
2013-05-26 17:23:00,61.0,18.0,-100.00,East,85,11.0,24.0,19,0.00,,,-99.99,,2013-05-26 22:23:00,
2013-05-26 17:33:00,61.0,18.0,-100.00,East,85,11.0,24.0,19,0.00,,,-99.99,,2013-05-26 22:33:00,
2013-05-26 17:41:00,61.0,14.0,-100.00,East,100,7.0,21.0,16,0.00,,,-99.99,,2013-05-26 22:41:00,
2013-05-26 18:02:00,61.0,14.0,-100.00,East,100,7.0,21.0,16,0.00,,,-99.99,,2013-05-26 23:02:00,
2013-05-26 18:12:00,61.0,14.0,-100.00,East,100,7.0,21.0,16,0.00,,,-99.99,,2013-05-26 23:12:00,
2013-05-26 18:22:00,61.0,14.0,-100.00,East,100,7.0,21.0,16,0.00,,,-99.99,,2013-05-26 23:22:00,
2013-05-26 18:32:00,61.0,14.0,-100.00,East,100,7.0,21.0,16,0.00,,,-99.99,,2013-05-26 23:32:00,
2013-05-26 19:02:00,58.0,15.0,-100.00,East,95,5.0,16.0,18,0.00,,,-99.99,,2013-05-27 00:02:00,
2013-05-26 19:11:00,58.0,15.0,-100.00,East,95,5.0,16.0,18,0.00,,,-99.99,,2013-05-27 00:11:00,
2013-05-26 19:22:00,58.0,15.0,-100.00,East,95,5.0,16.0,18,0.00,,,-99.99,,2013-05-27 00:22:00,
2013-05-26 19:32:00,58.0,15.0,-100.00,East,95,5.0,16.0,18,0.00,,,-99.99,,2013-05-27 00:32:00,
2013-05-26 19:41:00,58.0,15.0,-100.00,East,95,5.0,16.0,18,0.00,,,-99.99,,2013-05-27 00:41:00,
2013-05-26 19:42:00,57.0,15.0,-100.00,ESE,120,4.0,6.0,19,0.00,,,-99.99,,2013-05-27 00:42:00,
2013-05-26 20:01:00,57.0,15.0,-100.00,ESE,120,4.0,6.0,19,0.00,,,-99.99,,2013-05-27 01:01:00,
2013-05-26 20:11:00,57.0,15.0,-100.00,ESE,120,4.0,6.0,19,0.00,,,-99.99,,2013-05-27 01:11:00,
2013-05-26 20:22:00,57.0,15.0,-100.00,ESE,120,4.0,6.0,19,0.00,,,-99.99,,2013-05-27 01:22:00,
2013-05-26 20:31:00,57.0,15.0,-100.00,ESE,120,4.0,6.0,19,0.00,,,-99.99,,2013-05-27 01:31:00,
2013-05-26 20:42:00,52.0,19.0,-100.00,SE,145,1.0,4.0,27,0.00,,,-99.99,,2013-05-27 01:42:00,
2013-05-26 21:02:00,52.0,19.0,-100.00,SE,145,1.0,4.0,27,0.00,,,-99.99,,2013-05-27 02:02:00,
2013-05-26 21:11:00,52.0,19.0,-100.00,SE,145,1.0,4.0,27,0.00,,,-99.99,,2013-05-27 02:11:00,
2013-05-26 21:22:00,52.0,19.0,-100.00,SE,145,1.0,4.0,27,0.00,,,-99.99,,2013-05-27 02:22:00,
2013-05-26 21:32:00,52.0,19.0,-100.00,SE,145,1.0,4.0,27,0.00,,,-99.99,,2013-05-27 02:32:00,
2013-05-26 22:02:00,51.0,23.0,-100.00,ESE,120,0.0,2.0,33,0.00,,,-99.99,,2013-05-27 03:02:00,
2013-05-26 22:11:00,51.0,23.0,-100.00,ESE,120,0.0,2.0,33,0.00,,,-99.99,,2013-05-27 03:11:00,
2013-05-26 22:21:00,51.0,23.0,-100.00,ESE,120,0.0,2.0,33,0.00,,,-99.99,,2013-05-27 03:21:00,
2013-05-26 22:33:00,51.0,23.0,-100.00,ESE,120,0.0,2.0,33,0.00,,,-99.99,,2013-05-27 03:33:00,
2013-05-26 22:42:00,51.0,23.0,-100.00,ESE,120,0.0,2.0,33,0.00,,,-99.99,,2013-05-27 03:42:00,
2013-05-26 23:02:00,45.0,28.0,-100.00,NW,315,0.0,1.0,51,0.00,,,-99.99,,2013-05-27 04:02:00,
2013-05-26 23:12:00,45.0,28.0,-100.00,NW,315,0.0,1.0,51,0.00,,,-99.99,,2013-05-27 04:12:00,
2013-05-26 23:23:00,45.0,28.0,-100.00,NW,315,0.0,1.0,51,0.00,,,-99.99,,2013-05-27 04:23:00,
2013-05-26 23:33:00,45.0,28.0,-100.00,NW,315,0.0,1.0,51,0.00,,,-99.99,,2013-05-27 04:33:00,
2013-05-26 23:42:00,42.0,29.0,-100.00,NNW,345,0.0,1.0,60,0.00,,,-99.99,,2013-05-27 04:42:00,